Wind_Speed
20 21 18 20 22 20 19 18 18 19 25 21 19 19 20 25 20 16 11 14 18 24 22 19 15 12 11 10 10 10 10 11 12 15 21 21 22 23 26 28 31 34 34 34
21 23 22 24 23 22 21 21 19 22 26 22 20 18 15 14 12 14 12 13 21 24 20 21 19 16 16 16 14 15 14 15 16 20 25 25 26 28 30 31 31 34 34 34
22 25 23 25 26 25 24 23 24 24 27 23 20 15 14 9 8 13 14 14 19 16 17 20 19 17 17 20 21 21 19 18 20 23 25 26 30 33 30 31 34 36 36 35
22 24 24 24 28 27 27 27 27 25 26 21 22 10 14 11 11 12 18 21 16 17 16 16 21 24 23 23 24 23 24 22 23 25 28 28 31 29 27 31 37 40 39 37
22 24 25 23 26 29 29 28 29 26 25 28 25 18 12 15 12 15 23 25 23 22 24 20 17 15 17 20 22 24 23 25 27 26 28 28 29 26 28 34 40 43 38 35
19 21 23 24 24 26 27 27 27 25 26 29 26 26 14 15 19 24 25 26 29 30 27 23 22 21 23 24 27 29 29 29 28 29 30 28 28 28 31 38 43 40 34 32
20 19 23 25 24 24 25 24 24 27 27 26 26 30 24 25 22 22 29 31 29 29 29 29 26 26 28 32 35 33 30 33 30 31 30 33 30 30 34 40 41 38 33 34
21 19 21 23 25 25 28 27 25 24 17 16 30 31 24 25 25 29 28 29 30 31 32 31 31 31 35 32 33 33 33 30 29 29 31 31 28 33 34 37 39 38 37 38
21 21 22 22 24 26 27 27 26 29 29 31 24 21 29 28 24 25 28 28 30 31 32 31 32 31 26 24 24 27 30 27 27 28 27 29 29 33 39 41 44 41 38 40
25 22 22 23 22 22 26 30 29 30 30 28 22 25 25 24 19 22 20 21 21 24 24 22 22 22 20 21 23 29 27 27 26 26 26 29 32 35 40 43 41 37 39 41
24 25 24 25 24 21 23 26 28 31 31 30 26 20 26 20 20 21 19 19 19 21 23 20 18 19 22 27 30 29 27 27 24 25 26 27 32 38 42 40 35 37 40 42
21 23 24 25 26 26 25 24 27 29 28 32 34 32 30 25 19 23 22 22 19 17 21 21 20 21 25 29 30 27 26 24 25 24 27 30 33 36 37 35 36 39 41 45
24 26 22 22 28 29 31 29 28 30 27 29 32 30 29 25 22 22 25 28 29 22 21 22 21 24 27 26 24 22 24 25 29 21 27 28 32 35 37 37 39 41 44 48
31 32 28 26 25 31 32 31 32 34 34 31 29 28 22 24 24 24 24 27 30 28 19 22 24 25 25 24 24 22 25 28 24 21 25 30 36 39 41 42 41 43 46 50
40 37 35 34 31 30 32 34 37 39 39 38 34 32 25 22 21 22 23 24 26 27 20 19 21 25 25 25 25 26 30 31 18 24 31 36 42 43 40 42 42 44 47 52
46 44 42 38 35 36 38 36 36 38 41 42 41 37 32 28 25 19 19 23 25 25 24 19 19 18 24 25 26 29 32 35 27 29 37 40 46 43 41 43 44 46 48 53
49 48 47 44 42 41 43 40 39 37 35 35 40 38 34 31 31 27 21 22 25 26 25 23 21 21 22 24 26 27 31 34 30 33 37 37 41 40 41 44 43 47 50 53
51 50 50 51 48 49 42 39 41 39 33 33 34 33 28 27 32 31 26 21 19 26 26 26 25 24 22 22 23 25 26 28 31 35 38 40 41 41 42 45 44 48 51 52
47 50 52 52 53 51 50 46 41 36 33 38 38 36 31 32 32 24 30 29 23 23 25 26 25 25 24 25 28 28 28 30 34 37 39 42 41 40 43 42 46 49 50 47
44 45 48 51 53 55 52 51 46 42 38 38 36 38 34 32 30 28 35 35 32 25 23 25 28 30 30 29 31 30 31 35 35 39 41 43 40 41 39 43 47 49 45 47
41 40 42 44 49 53 54 54 47 41 37 40 35 32 33 29 30 29 33 34 35 36 31 27 27 27 27 28 31 32 33 35 35 38 42 42 37 38 40 44 47 43 45 47
42 43 42 40 43 50 48 46 44 46 40 36 36 32 29 27 25 25 27 29 31 32 34 32 29 27 26 30 32 32 32 33 36 35 39 38 38 38 41 44 41 42 46 46
43 42 45 42 42 45 45 44 40 41 40 37 36 35 34 32 31 30 29 30 30 31 34 34 34 33 28 28 29 29 31 32 31 33 35 34 35 37 41 39 41 44 45 44
42 43 43 45 41 41 43 44 43 42 42 34 32 30 30 29 31 31 34 33 34 36 34 34 38 35 30 28 28 26 31 32 33 34 30 31 34 37 38 39 42 44 43 41
46 46 42 42 42 40 44 44 45 43 38 35 32 30 28 30 31 30 31 31 35 35 37 37 40 37 32 29 27 29 29 33 30 29 29 30 33 34 37 39 42 43 40 41
46 44 46 44 43 47 46 44 45 44 40 38 36 33 33 34 36 36 35 32 33 32 36 42 40 33 33 28 30 31 30 32 27 27 29 30 30 34 38 39 41 40 39 41
Wind_Direction
252 243 240 242 243 247 249 249 248 248 260 261 267 266 261 250 258 257 252 244 257 223 225 220 217 228 249 264 277 290 303 317 334 334 331 322 316 316 315 317 320 319 316 315
249 247 236 238 245 246 248 251 252 252 259 267 268 275 276 264 249 226 224 245 220 212 225 222 221 235 253 266 276 290 297 306 311 318 320 316 314 315 316 321 323 322 317 313
250 251 247 240 242 245 248 249 249 247 263 272 272 280 274 257 221 205 229 256 235 224 225 226 231 241 262 277 283 283 290 294 308 308 315 313 317 315 314 318 320 319 315 308
256 258 253 246 247 245 244 246 249 252 261 262 276 270 257 268 218 223 242 255 260 249 259 251 242 241 248 266 277 285 281 290 295 306 311 314 316 318 319 319 322 320 315 311
257 255 257 252 249 249 247 248 251 253 259 265 272 272 230 261 233 245 238 251 263 262 261 263 254 253 266 279 287 289 285 288 290 299 309 309 310 312 316 320 324 321 316 313
260 256 259 257 255 258 257 255 256 258 259 263 267 261 255 250 243 236 235 246 264 271 260 259 263 266 272 279 283 286 285 287 289 297 296 307 299 308 314 319 320 319 315 316
256 261 259 256 253 252 256 256 256 258 256 265 256 265 268 240 264 259 255 249 258 259 255 258 262 266 267 275 278 276 275 279 283 297 299 299 297 300 309 317 319 317 316 318
258 261 258 259 257 251 249 249 243 249 248 256 263 265 273 265 269 269 263 260 259 258 257 260 264 270 281 271 270 266 270 281 289 293 293 304 303 306 311 311 318 316 315 318
259 259 260 262 263 259 259 255 252 251 253 254 246 265 273 272 268 265 266 264 262 260 265 267 270 270 266 267 259 263 269 280 286 288 294 298 306 313 311 306 308 311 314 318
253 255 261 260 260 262 261 262 263 261 255 255 266 261 261 271 272 271 274 275 273 269 267 267 263 265 267 274 267 261 272 283 284 286 299 306 309 311 312 311 311 309 315 319
254 252 257 263 259 259 256 258 260 260 261 265 265 260 263 265 272 270 273 273 270 267 269 263 262 269 269 266 268 272 280 286 283 292 298 307 310 312 311 311 311 312 316 320
255 255 248 254 261 259 256 256 261 263 270 268 265 262 270 278 266 267 271 269 271 269 270 266 260 256 255 264 276 277 277 274 287 292 303 312 315 314 315 314 312 314 318 323
254 258 257 254 254 261 261 262 260 263 261 262 271 276 279 269 264 255 258 266 273 268 268 264 258 258 262 268 270 279 282 286 282 285 303 311 319 325 322 315 313 317 320 324
251 253 253 248 233 248 253 256 260 264 265 267 266 274 268 271 264 259 255 256 265 272 273 281 262 260 265 269 280 286 285 287 287 315 316 317 316 313 314 317 315 318 321 322
258 256 252 250 252 253 255 252 253 261 265 266 270 271 268 268 267 260 250 251 253 258 262 283 275 264 266 274 280 289 289 289 311 317 318 317 311 316 311 316 317 319 320 322
259 260 260 258 255 253 253 253 253 258 264 268 269 270 275 275 275 268 259 240 243 250 260 268 278 289 276 272 280 287 290 295 310 309 319 311 311 309 309 313 316 318 321 321
257 259 262 260 263 262 253 252 256 257 260 267 267 270 272 272 273 272 267 247 238 251 258 259 273 280 293 282 281 286 289 299 313 314 314 317 321 312 311 314 317 318 320 321
252 254 257 260 260 259 263 263 258 257 260 262 263 260 261 259 263 269 266 266 253 245 248 256 260 268 277 287 282 287 284 296 305 313 311 312 315 311 312 318 318 318 320 319
250 251 254 256 260 263 263 268 268 262 260 253 253 256 253 248 250 243 260 257 251 256 251 252 262 269 273 287 290 290 291 302 309 306 310 309 310 309 314 317 317 317 318 318
254 253 252 254 257 260 265 262 262 266 265 259 256 256 256 255 251 236 247 256 259 256 257 253 260 270 277 282 289 289 290 301 303 301 304 307 307 313 317 317 317 316 319 321
256 256 256 254 255 256 257 258 262 263 260 258 259 257 255 253 250 244 250 255 263 261 258 258 258 269 276 280 283 286 290 296 296 299 301 300 312 315 317 316 315 319 322 325
260 257 255 254 256 258 260 258 256 259 258 258 258 255 250 249 248 249 247 253 258 265 262 262 263 267 270 273 272 278 285 292 293 293 295 303 310 317 314 314 319 323 325 326
259 258 257 256 258 255 259 257 256 252 254 251 247 252 252 248 249 249 251 254 259 261 259 264 267 267 267 268 268 273 281 287 295 289 297 304 311 312 314 320 324 325 326 326
262 260 257 254 250 252 248 251 251 246 243 241 245 244 248 252 251 249 247 247 253 259 263 263 265 265 268 264 263 268 278 297 282 290 299 309 309 315 319 323 325 327 327 327
258 259 258 255 251 247 247 246 247 249 247 245 243 246 252 256 255 254 252 251 251 255 261 263 265 269 265 267 267 275 283 292 289 294 304 305 313 319 322 325 326 326 327 328
258 257 255 252 248 247 243 246 246 247 247 249 251 253 259 260 260 260 258 255 256 257 256 260 264 266 263 270 267 281 281 285 287 301 303 310 319 323 323 325 325 327 329 330
Height
5883 5885 5887 5887 5888 5889 5890 5891 5892 5891 5889 5891 5893 5894 5896 5898 5898 5901 5903 5905 5906 5906 5907 5907 5907 5906 5904 5903 5902 5900 5898 5895 5893 5891 5888 5885 5882 5878 5875 5870 5865 5860 5855 5850
5880 5879 5881 5882 5884 5885 5886 5887 5889 5887 5885 5887 5889 5891 5892 5893 5894 5896 5899 5901 5902 5903 5904 5904 5904 5903 5902 5901 5899 5897 5895 5892 5890 5888 5885 5881 5878 5873 5869 5864 5859 5854 5849 5843
5875 5874 5876 5878 5879 5880 5882 5883 5883 5884 5882 5884 5886 5888 5889 5890 5891 5894 5896 5899 5901 5901 5901 5901 5901 5901 5900 5899 5897 5895 5892 5890 5888 5885 5881 5877 5873 5868 5863 5858 5853 5848 5842 5836
5871 5871 5872 5874 5874 5875 5876 5877 5878 5880 5881 5884 5882 5888 5888 5888 5889 5891 5894 5895 5896 5897 5897 5897 5898 5897 5896 5895 5893 5891 5889 5887 5884 5880 5876 5872 5867 5862 5857 5852 5847 5841 5834 5828
5866 5865 5867 5869 5870 5870 5872 5873 5874 5877 5878 5878 5881 5883 5887 5886 5887 5889 5890 5891 5892 5893 5893 5893 5893 5893 5892 5891 5889 5887 5885 5882 5879 5876 5872 5867 5861 5857 5851 5846 5840 5834 5828 5821
5860 5861 5863 5863 5866 5866 5867 5869 5871 5873 5874 5873 5876 5878 5884 5887 5884 5882 5884 5886 5887 5887 5887 5887 5888 5888 5886 5885 5883 5882 5880 5877 5874 5870 5866 5861 5856 5851 5846 5841 5835 5828 5821 5816
5854 5856 5857 5858 5860 5861 5862 5864 5866 5868 5869 5871 5871 5871 5875 5878 5877 5879 5879 5879 5880 5880 5880 5881 5882 5881 5880 5879 5877 5876 5874 5871 5868 5865 5860 5855 5849 5844 5840 5835 5828 5821 5814 5808
5850 5852 5851 5853 5855 5856 5856 5858 5861 5862 5868 5872 5864 5865 5869 5869 5871 5869 5870 5871 5871 5871 5872 5873 5874 5873 5872 5870 5869 5869 5868 5866 5862 5858 5854 5848 5842 5838 5833 5827 5821 5814 5807 5800
5846 5847 5847 5848 5849 5851 5853 5854 5856 5856 5858 5860 5863 5863 5862 5862 5864 5866 5863 5863 5863 5863 5864 5866 5866 5865 5864 5863 5862 5862 5861 5859 5856 5852 5846 5841 5836 5832 5827 5820 5814 5808 5800 5794
5840 5842 5841 5842 5843 5846 5847 5848 5850 5851 5852 5853 5856 5857 5859 5858 5858 5858 5859 5858 5857 5857 5857 5858 5858 5858 5858 5857 5857 5856 5854 5851 5848 5844 5840 5835 5830 5825 5819 5813 5806 5800 5794 5786
5835 5837 5837 5837 5838 5840 5840 5841 5843 5844 5846 5847 5850 5854 5852 5854 5853 5852 5852 5851 5852 5852 5851 5852 5852 5852 5852 5852 5851 5849 5846 5843 5841 5837 5833 5829 5824 5818 5812 5805 5799 5793 5786 5779
5829 5830 5833 5833 5833 5834 5834 5835 5835 5837 5840 5839 5840 5843 5845 5847 5848 5847 5847 5846 5845 5846 5845 5845 5846 5846 5846 5845 5844 5841 5839 5836 5833 5830 5827 5822 5817 5811 5804 5798 5792 5785 5778 5770
5823 5823 5826 5828 5830 5829 5828 5829 5831 5830 5831 5833 5833 5836 5837 5839 5840 5841 5841 5840 5839 5840 5840 5839 5840 5840 5839 5838 5837 5834 5832 5829 5826 5823 5820 5815 5810 5804 5798 5791 5784 5777 5770 5762
5814 5815 5819 5821 5823 5820 5822 5823 5823 5822 5823 5825 5825 5827 5831 5831 5831 5832 5833 5833 5833 5834 5834 5834 5834 5833 5832 5832 5830 5828 5825 5822 5820 5817 5813 5808 5804 5798 5791 5785 5777 5769 5762 5754
5804 5806 5808 5811 5814 5815 5814 5815 5816 5815 5816 5816 5820 5820 5822 5823 5824 5824 5826 5826 5827 5828 5828 5828 5827 5827 5826 5825 5824 5822 5819 5817 5813 5810 5807 5803 5798 5791 5784 5776 5769 5762 5755 5747
5793 5795 5797 5801 5804 5806 5806 5807 5807 5808 5809 5810 5810 5812 5815 5816 5816 5818 5819 5820 5820 5821 5821 5822 5822 5821 5820 5819 5818 5817 5813 5809 5806 5804 5800 5795 5789 5782 5775 5768 5762 5755 5748 5739
5782 5785 5786 5789 5792 5793 5793 5798 5801 5802 5804 5804 5803 5806 5808 5808 5810 5811 5812 5813 5815 5815 5815 5816 5816 5815 5814 5813 5811 5810 5807 5804 5802 5798 5793 5788 5781 5774 5767 5761 5755 5749 5739 5730
5770 5772 5775 5776 5779 5778 5785 5788 5789 5793 5797 5797 5794 5795 5798 5801 5802 5804 5805 5807 5808 5808 5808 5808 5809 5807 5807 5806 5804 5802 5800 5798 5795 5791 5785 5780 5773 5766 5760 5755 5748 5741 5731 5722
5759 5761 5763 5764 5766 5770 5772 5774 5780 5783 5785 5781 5784 5787 5789 5790 5792 5796 5795 5795 5797 5799 5800 5800 5800 5800 5799 5799 5797 5795 5794 5791 5788 5784 5779 5772 5765 5759 5754 5748 5741 5732 5723 5714
5746 5749 5752 5753 5756 5757 5760 5762 5766 5769 5771 5770 5775 5777 5780 5783 5786 5788 5786 5787 5789 5790 5790 5791 5791 5792 5792 5792 5791 5789 5787 5785 5781 5776 5771 5765 5758 5753 5747 5741 5733 5725 5716 5707
5733 5736 5740 5741 5742 5745 5747 5749 5752 5758 5760 5758 5763 5768 5770 5772 5775 5779 5779 5781 5782 5783 5784 5783 5784 5785 5785 5785 5784 5783 5781 5778 5774 5768 5763 5757 5752 5748 5741 5734 5726 5717 5708 5700
5720 5723 5726 5730 5732 5732 5735 5740 5741 5742 5749 5751 5753 5757 5762 5764 5767 5769 5771 5774 5775 5776 5776 5777 5777 5777 5777 5776 5777 5775 5773 5770 5765 5760 5756 5752 5747 5741 5735 5727 5718 5709 5701 5693
5710 5714 5714 5719 5722 5722 5722 5725 5729 5730 5734 5739 5744 5746 5750 5755 5757 5760 5763 5765 5767 5768 5770 5770 5770 5768 5768 5770 5769 5768 5766 5762 5757 5753 5749 5746 5741 5735 5728 5719 5710 5703 5695 5687
5700 5700 5702 5704 5711 5712 5712 5712 5716 5718 5723 5728 5732 5737 5741 5744 5748 5750 5753 5755 5757 5759 5761 5762 5761 5760 5761 5760 5761 5760 5758 5755 5751 5747 5744 5740 5735 5728 5721 5712 5705 5697 5689 5680
5686 5686 5691 5693 5696 5699 5701 5701 5704 5709 5713 5718 5722 5726 5729 5733 5737 5741 5743 5746 5748 5750 5753 5753 5752 5753 5752 5751 5753 5753 5751 5748 5745 5743 5738 5733 5727 5721 5714 5706 5699 5692 5685 5674
5673 5676 5674 5678 5682 5684 5690 5691 5693 5698 5702 5704 5707 5712 5716 5721 5726 5729 5733 5736 5739 5742 5744 5744 5745 5746 5746 5745 5746 5746 5745 5742 5740 5737 5733 5727 5720 5715 5708 5701 5694 5688 5680 5670